Weather History for Puyallup, WA

Change the Weather History Date:

Wednesday, January 9, 2013

  Actual Average (KTCM) Record (KTCM)
Temperature  
Mean Temperature 44 °F -  
Max Temperature 55 °F 43 °F 55 °F (1981)
Min Temperature 32 °F 32 °F 13 °F (1974)
Degree Days  
Heating Degree Days 22    
Moisture  
Dew Point 36 °F    
Average Humidity 89    
Maximum Humidity 100    
Minimum Humidity 58    
Precipitation  
Precipitation 0.47 in - - ()
Sea Level Pressure  
Sea Level Pressure 29.81 in    
Wind  
Wind Speed 6 mph (SW)    
Max Wind Speed 14 mph    
Max Gust Speed 24 mph    
Visibility 10 miles    
Events Rain , Snow    
Averages and records for this station are not official NWS values.
T = Trace of Precipitation, MM = Missing Value Source: NWS Daily Summary

Daily Weather History Graph

Daily Weather History Graph

Search for Another Location

Airport:

Trip Planner

Search our weather history database for the weather conditions in past years. The results will help you decide how hot, cold, wet, or windy it might be!

Date:

Astronomy

Jan. 09, 2013 Rise Set
Actual Time 7:53 AM PST 4:39 PM PST
Civil Twilight 7:18 AM PST 5:14 PM PST
Nautical Twilight 6:40 AM PST 5:52 PM PST
Astronomical Twilight 6:03 AM PST 6:29 PM PST
Moon 5:39 AM PST (1/9) 2:46 PM PST (1/9)
Length of Visible Light 9h 55m
Length of Day
8h 45m
Waning Crescent, 6% of the Moon is Illuminated
Jan 9
Waning Crescent
Jan 11
New
Jan 18
First Quarter
Jan 26
Full
Feb 3
Last Quarter

Hourly Weather History & Observations

Time (PST) Temp. Windchill Dew Point Humidity Pressure Visibility Wind Dir Wind Speed Gust Speed Precip Events Conditions
12:15 AM 55.4 °F - 41.0 °F 58% 29.74 in 10.0 mi SSW 8.1 mph 23.0 mph N/A   Scattered Clouds
12:35 AM 55.4 °F - 41.0 °F 58% 29.74 in 10.0 mi SSW 13.8 mph 20.7 mph N/A   Mostly Cloudy
12:55 AM 55.4 °F - 41.0 °F 58% 29.74 in 10.0 mi SW 11.5 mph 19.6 mph N/A   Mostly Cloudy
1:15 AM 53.6 °F - 41.0 °F 62% 29.76 in 10.0 mi SW 10.4 mph 24.2 mph N/A   Overcast
1:35 AM 53.6 °F - 41.0 °F 62% 29.75 in 10.0 mi SW 8.1 mph 21.9 mph N/A Rain Light Rain
1:55 AM 53.6 °F - 41.0 °F 62% 29.74 in 10.0 mi SW 8.1 mph - N/A   Overcast
2:15 AM 53.6 °F - 39.2 °F 58% 29.73 in 10.0 mi SSW 11.5 mph 19.6 mph N/A   Overcast
2:35 AM 53.6 °F - 39.2 °F 58% 29.72 in 10.0 mi SSW 8.1 mph 17.3 mph N/A   Mostly Cloudy
2:55 AM 53.6 °F - 39.2 °F 58% 29.72 in 10.0 mi SW 9.2 mph 16.1 mph N/A   Mostly Cloudy
3:15 AM 53.6 °F - 41.0 °F 62% 29.72 in 10.0 mi NW 3.5 mph - N/A   Overcast
3:35 AM 44.6 °F 39.2 °F 44.6 °F 100% 29.72 in 10.0 mi NW 10.4 mph 17.3 mph N/A   Mostly Cloudy
3:55 AM 44.6 °F 40.2 °F 42.8 °F 93% 29.72 in 10.0 mi NW 8.1 mph - N/A   Mostly Cloudy
4:15 AM 42.8 °F 38.0 °F 41.0 °F 93% 29.72 in 10.0 mi WNW 8.1 mph - N/A   Scattered Clouds
4:35 AM 41.0 °F - 41.0 °F 100% 29.72 in 10.0 mi Calm Calm - N/A   Scattered Clouds
4:55 AM 41.0 °F 39.0 °F 41.0 °F 100% 29.70 in 4.0 mi West 3.5 mph - 0.01 in Rain Light Rain
5:15 AM 41.0 °F - 41.0 °F 100% 29.71 in 3.0 mi Calm Calm - 0.04 in Rain Rain
5:35 AM 39.2 °F - 39.2 °F 100% 29.70 in 4.0 mi Calm Calm - 0.09 in Rain Rain
5:55 AM 39.2 °F 35.0 °F 39.2 °F 100% 29.71 in 5.0 mi WNW 5.8 mph - 0.15 in Rain Rain
6:15 AM 39.2 °F - 37.4 °F 93% 29.72 in 5.0 mi Calm Calm - 0.04 in Rain Rain
6:35 AM 37.4 °F 34.9 °F 37.4 °F 100% 29.73 in 6.0 mi West 3.5 mph - 0.11 in Rain Light Rain
6:55 AM 35.6 °F - 35.6 °F 100% 29.74 in - Calm Calm - 0.18 in   Mostly Cloudy
7:15 AM 35.6 °F - 35.6 °F 100% 29.74 in - Calm Calm - 0.03 in   Mostly Cloudy
7:35 AM 35.6 °F - 35.6 °F 100% 29.75 in - Calm Calm - 0.06 in Snow Heavy Snow
7:55 AM 33.8 °F - 33.8 °F 100% 29.75 in - Calm Calm - 0.08 in Snow Heavy Snow
8:15 AM 32.0 °F - 32.0 °F 100% 29.76 in - Calm Calm - 0.02 in Snow Heavy Snow
8:35 AM 32.0 °F 28.7 °F 32.0 °F 100% 29.76 in - SSW 3.5 mph - 0.04 in   Unknown
8:55 AM 33.8 °F - 33.8 °F 100% 29.77 in - Calm Calm - 0.05 in Rain Light Rain
9:15 AM 33.8 °F 27.7 °F 33.8 °F 100% 29.77 in - South 6.9 mph - N/A Rain Light Rain
9:35 AM 35.6 °F 31.7 °F 35.6 °F 100% 29.77 in 10.0 mi South 4.6 mph - N/A Rain Light Rain
10:15 AM 35.6 °F 30.7 °F 35.6 °F 100% 29.77 in 10.0 mi SSW 5.8 mph - N/A   Partly Cloudy
10:35 AM 37.4 °F 32.8 °F 37.4 °F 100% 29.78 in 10.0 mi SSW 5.8 mph - N/A   Clear
10:55 AM 37.4 °F 30.8 °F 37.4 °F 100% 29.79 in 10.0 mi SSW 9.2 mph - N/A   Clear
11:15 AM 37.4 °F 31.4 °F 37.4 °F 100% 29.79 in 10.0 mi SW 8.1 mph - N/A   Partly Cloudy
11:35 AM 37.4 °F 31.4 °F 37.4 °F 100% 29.79 in 10.0 mi SW 8.1 mph - N/A   Partly Cloudy
11:55 AM 39.2 °F 35.0 °F 37.4 °F 93% 29.79 in 10.0 mi SW 5.8 mph - N/A   Clear
12:15 PM 39.2 °F 33.6 °F 37.4 °F 93% 29.80 in 10.0 mi SW 8.1 mph - N/A   Clear
12:35 PM 39.2 °F 33.0 °F 37.4 °F 93% 29.80 in 10.0 mi SW 9.2 mph - N/A   Clear
12:55 PM 39.2 °F 35.0 °F 37.4 °F 93% 29.80 in 10.0 mi SSW 5.8 mph - N/A   Partly Cloudy
1:15 PM 39.2 °F 34.2 °F 37.4 °F 93% 29.81 in 10.0 mi SW 6.9 mph 17.3 mph N/A   Partly Cloudy
1:35 PM 39.2 °F 34.2 °F 37.4 °F 93% 29.82 in 10.0 mi SSW 6.9 mph - N/A   Partly Cloudy
1:55 PM 39.2 °F 33.6 °F 37.4 °F 93% 29.82 in 10.0 mi SW 8.1 mph - N/A   Scattered Clouds
2:15 PM 39.2 °F 33.6 °F 37.4 °F 93% 29.83 in 10.0 mi SW 8.1 mph - N/A   Mostly Cloudy
2:35 PM 39.2 °F 33.6 °F 37.4 °F 93% 29.83 in 10.0 mi SW 8.1 mph 16.1 mph N/A   Scattered Clouds
2:55 PM 39.2 °F 35.0 °F 37.4 °F 93% 29.84 in 10.0 mi SW 5.8 mph - N/A   Partly Cloudy
3:15 PM 39.2 °F 34.2 °F 37.4 °F 93% 29.85 in 10.0 mi SW 6.9 mph - N/A   Clear
3:35 PM 39.2 °F 35.0 °F 35.6 °F 87% 29.85 in 10.0 mi SW 5.8 mph - N/A   Clear
3:55 PM 39.2 °F 35.0 °F 35.6 °F 87% 29.87 in 10.0 mi SW 5.8 mph - N/A   Partly Cloudy
4:15 PM 37.4 °F 32.8 °F 35.6 °F 93% 29.88 in 10.0 mi SSW 5.8 mph - N/A   Partly Cloudy
4:35 PM 37.4 °F 33.8 °F 35.6 °F 93% 29.88 in 10.0 mi SSW 4.6 mph - N/A   Clear
4:55 PM 37.4 °F 33.8 °F 35.6 °F 93% 29.89 in 10.0 mi SW 4.6 mph - N/A   Clear
5:15 PM 37.4 °F 32.8 °F 35.6 °F 93% 29.89 in 10.0 mi SW 5.8 mph - N/A   Clear
5:35 PM 37.4 °F - 35.6 °F 93% 29.89 in 10.0 mi Calm Calm - N/A   Partly Cloudy
5:55 PM 37.4 °F 32.1 °F 35.6 °F 93% 29.89 in 10.0 mi SSW 6.9 mph - N/A   Partly Cloudy
6:15 PM 37.4 °F 34.9 °F 33.8 °F 87% 29.90 in 10.0 mi SSW 3.5 mph - N/A   Clear
6:35 PM 37.4 °F - 33.8 °F 87% 29.90 in 10.0 mi Calm Calm - N/A   Clear
6:55 PM 35.6 °F 30.7 °F 32.0 °F 87% 29.90 in 10.0 mi South 5.8 mph - N/A   Clear
7:15 PM 35.6 °F - 32.0 °F 87% 29.91 in 10.0 mi Calm Calm - N/A   Clear
7:35 PM 35.6 °F - 32.0 °F 87% 29.91 in 10.0 mi Calm Calm - N/A   Clear
7:55 PM 35.6 °F - 32.0 °F 87% 29.92 in 10.0 mi Calm Calm - N/A   Clear
8:15 PM 35.6 °F 31.7 °F 32.0 °F 87% 29.92 in 10.0 mi South 4.6 mph - N/A   Clear
8:35 PM 35.6 °F 32.8 °F 32.0 °F 87% 29.92 in 10.0 mi South 3.5 mph - N/A   Clear
8:55 PM 35.6 °F 31.7 °F 32.0 °F 87% 29.92 in 10.0 mi South 4.6 mph - N/A   Clear
9:15 PM 35.6 °F 29.9 °F 32.0 °F 87% 29.93 in 10.0 mi WSW 6.9 mph - N/A   Clear
9:35 PM 33.8 °F 30.8 °F 32.0 °F 93% 29.93 in 10.0 mi SW 3.5 mph - N/A   Clear
9:55 PM 35.6 °F - 32.0 °F 87% 29.94 in 10.0 mi Calm Calm - N/A   Clear
10:15 PM 33.8 °F - 32.0 °F 93% 29.94 in 10.0 mi Calm Calm - N/A   Clear
10:35 PM 33.8 °F - 32.0 °F 93% 29.95 in 10.0 mi Calm Calm - N/A   Clear
10:55 PM 32.0 °F - 32.0 °F 100% 29.95 in 10.0 mi Calm Calm - N/A   Clear